Time,TemperatureF,DewpointF,PressureIn,WindDirection,WindDirectionDegrees,WindSpeedMPH,WindSpeedGustMPH,Humidity,HourlyPrecipIn,Conditions,Clouds,dailyrainin,SoftwareType,DateUTC
2013-12-10 00:01:00,22.5,18.9,30.26,NNW,332,0.0,0.0,86,0.00,,,0.00,Wunderground v.1.15,2013-12-10 05:01:00,
2013-12-10 00:03:00,22.4,19.1,30.26,NNW,332,0.0,3.0,87,0.00,,,0.00,Wunderground v.1.15,2013-12-10 05:03:00,
2013-12-10 00:07:00,22.2,18.9,30.25,NNW,332,1.0,3.0,87,0.00,,,0.00,Wunderground v.1.15,2013-12-10 05:07:00,
2013-12-10 00:09:00,22.2,19.2,30.26,NNW,332,1.0,3.0,88,0.00,,,0.00,Wunderground v.1.15,2013-12-10 05:09:00,
2013-12-10 00:13:00,22.0,19.0,30.25,NNW,332,0.0,1.0,88,0.00,,,0.00,Wunderground v.1.15,2013-12-10 05:13:00,
2013-12-10 00:20:00,21.9,19.2,30.25,NNW,332,0.0,1.0,89,0.00,,,0.00,Wunderground v.1.15,2013-12-10 05:20:00,
2013-12-10 00:21:00,21.8,19.1,30.25,NNW,332,0.0,2.0,89,0.00,,,0.00,Wunderground v.1.15,2013-12-10 05:21:00,
2013-12-10 00:27:00,21.8,19.1,30.25,NNW,332,1.0,2.0,89,0.00,,,0.00,Wunderground v.1.15,2013-12-10 05:27:00,
2013-12-10 00:33:00,21.7,19.2,30.25,NNW,332,0.0,1.0,90,0.00,,,0.00,Wunderground v.1.15,2013-12-10 05:33:00,
2013-12-10 00:39:00,21.6,19.1,30.25,NNW,332,0.0,1.0,90,0.00,,,0.00,Wunderground v.1.15,2013-12-10 05:39:00,
2013-12-10 00:45:00,21.6,19.1,30.25,NNW,332,0.0,0.0,90,0.00,,,0.00,Wunderground v.1.15,2013-12-10 05:45:00,
2013-12-10 00:51:00,21.5,19.0,30.25,NNW,332,0.0,0.0,90,0.00,,,0.00,Wunderground v.1.15,2013-12-10 05:51:00,
2013-12-10 00:57:00,21.5,19.3,30.25,NNW,332,0.0,0.0,91,0.00,,,0.00,Wunderground v.1.15,2013-12-10 05:57:00,
2013-12-10 01:03:00,21.5,19.3,30.24,NNW,332,0.0,0.0,91,0.00,,,0.00,Wunderground v.1.15,2013-12-10 06:03:00,
2013-12-10 01:09:00,21.4,19.2,30.24,NNW,332,0.0,0.0,91,0.00,,,0.00,Wunderground v.1.15,2013-12-10 06:09:00,
2013-12-10 01:15:00,21.4,19.2,30.24,NNW,332,0.0,0.0,91,0.00,,,0.00,Wunderground v.1.15,2013-12-10 06:15:00,
2013-12-10 01:21:00,21.4,19.4,30.23,NNW,332,0.0,0.0,92,0.00,,,0.00,Wunderground v.1.15,2013-12-10 06:21:00,
2013-12-10 01:27:00,21.3,19.3,30.23,NNW,331,1.0,3.0,92,0.00,,,0.00,Wunderground v.1.15,2013-12-10 06:27:00,
2013-12-10 01:33:00,21.3,19.3,30.23,NNW,331,1.0,1.0,92,0.00,,,0.00,Wunderground v.1.15,2013-12-10 06:33:00,
2013-12-10 01:39:00,21.2,19.2,30.23,NNW,331,1.0,3.0,92,0.00,,,0.00,Wunderground v.1.15,2013-12-10 06:39:00,
2013-12-10 01:45:00,21.2,19.2,30.23,NNW,328,1.0,3.0,92,0.00,,,0.00,Wunderground v.1.15,2013-12-10 06:45:00,
2013-12-10 01:51:00,21.2,19.2,30.24,NNW,328,0.0,0.0,92,0.00,,,0.00,Wunderground v.1.15,2013-12-10 06:51:00,
2013-12-10 01:57:00,21.1,19.1,30.24,NNW,328,0.0,2.0,92,0.00,,,0.00,Wunderground v.1.15,2013-12-10 06:57:00,
2013-12-10 02:03:00,21.1,19.1,30.24,NNW,328,0.0,0.0,92,0.00,,,0.00,Wunderground v.1.15,2013-12-10 07:03:00,
2013-12-10 02:09:00,21.1,19.1,30.24,NNW,328,0.0,0.0,92,0.00,,,0.00,Wunderground v.1.15,2013-12-10 07:09:00,
2013-12-10 02:15:00,21.1,19.1,30.24,NNW,328,0.0,0.0,92,0.00,,,0.00,Wunderground v.1.15,2013-12-10 07:15:00,
2013-12-10 02:21:00,21.1,19.1,30.24,NNW,328,0.0,0.0,92,0.00,,,0.00,Wunderground v.1.15,2013-12-10 07:21:00,
2013-12-10 02:27:00,21.1,19.1,30.25,NNW,328,0.0,0.0,92,0.00,,,0.00,Wunderground v.1.15,2013-12-10 07:27:00,
2013-12-10 02:33:00,21.1,19.1,30.25,NNW,328,0.0,0.0,92,0.00,,,0.00,Wunderground v.1.15,2013-12-10 07:33:00,
2013-12-10 02:39:00,21.1,19.1,30.24,NNW,328,0.0,0.0,92,0.00,,,0.00,Wunderground v.1.15,2013-12-10 07:39:00,
2013-12-10 02:45:00,21.1,19.1,30.24,NNW,328,0.0,0.0,92,0.00,,,0.00,Wunderground v.1.15,2013-12-10 07:45:00,
2013-12-10 02:51:00,21.0,19.0,30.24,NNW,328,0.0,0.0,92,0.00,,,0.00,Wunderground v.1.15,2013-12-10 07:51:00,
2013-12-10 02:57:00,21.0,19.0,30.24,NNW,328,0.0,0.0,92,0.00,,,0.00,Wunderground v.1.15,2013-12-10 07:57:00,
2013-12-10 03:03:00,21.0,19.0,30.23,NNW,328,0.0,0.0,92,0.00,,,0.00,Wunderground v.1.15,2013-12-10 08:03:00,
2013-12-10 03:09:00,21.0,19.0,30.23,NNW,328,0.0,0.0,92,0.00,,,0.00,Wunderground v.1.15,2013-12-10 08:09:00,
2013-12-10 03:15:00,21.0,19.0,30.23,NNW,328,0.0,0.0,92,0.00,,,0.00,Wunderground v.1.15,2013-12-10 08:15:00,
2013-12-10 03:21:00,21.0,19.3,30.23,NNW,328,0.0,0.0,93,0.00,,,0.00,Wunderground v.1.15,2013-12-10 08:21:00,
2013-12-10 03:27:00,21.0,19.3,30.23,NNW,328,0.0,0.0,93,0.00,,,0.00,Wunderground v.1.15,2013-12-10 08:27:00,
2013-12-10 03:33:00,21.0,19.3,30.23,NNW,328,0.0,0.0,93,0.00,,,0.00,Wunderground v.1.15,2013-12-10 08:33:00,
2013-12-10 03:39:00,21.0,19.3,30.23,NNW,328,0.0,0.0,93,0.00,,,0.00,Wunderground v.1.15,2013-12-10 08:39:00,
2013-12-10 03:45:00,21.0,19.3,30.23,NNW,328,0.0,0.0,93,0.00,,,0.00,Wunderground v.1.15,2013-12-10 08:45:00,
2013-12-10 03:51:00,21.0,19.3,30.23,NNW,328,0.0,0.0,93,0.00,,,0.00,Wunderground v.1.15,2013-12-10 08:51:00,
2013-12-10 03:57:00,20.9,19.2,30.23,NNW,328,0.0,0.0,93,0.00,,,0.00,Wunderground v.1.15,2013-12-10 08:57:00,
2013-12-10 04:03:00,21.0,19.3,30.23,NNW,328,0.0,0.0,93,0.00,,,0.00,Wunderground v.1.15,2013-12-10 09:03:00,
2013-12-10 04:07:00,20.9,19.2,30.23,NNW,328,0.0,0.0,93,0.00,,,0.00,Wunderground v.1.15,2013-12-10 09:07:00,
2013-12-10 04:13:00,21.0,19.3,30.23,NNW,328,0.0,0.0,93,0.00,,,0.00,Wunderground v.1.15,2013-12-10 09:13:00,
2013-12-10 04:20:00,21.0,19.3,30.23,NNW,328,0.0,0.0,93,0.00,,,0.00,Wunderground v.1.15,2013-12-10 09:20:00,
2013-12-10 04:25:00,21.0,19.3,30.23,NNW,328,0.0,0.0,93,0.00,,,0.00,Wunderground v.1.15,2013-12-10 09:25:00,
2013-12-10 04:31:00,21.0,19.3,30.23,NNW,328,0.0,0.0,93,0.00,,,0.00,Wunderground v.1.15,2013-12-10 09:31:00,
2013-12-10 04:37:00,21.0,19.3,30.23,NNW,328,0.0,0.0,93,0.00,,,0.00,Wunderground v.1.15,2013-12-10 09:37:00,
2013-12-10 04:43:00,21.0,19.3,30.23,NNW,328,0.0,0.0,93,0.00,,,0.00,Wunderground v.1.15,2013-12-10 09:43:00,
2013-12-10 04:50:00,20.9,19.2,30.23,NNW,328,0.0,0.0,93,0.00,,,0.00,Wunderground v.1.15,2013-12-10 09:50:00,
2013-12-10 04:55:00,20.9,19.2,30.23,NNW,328,0.0,0.0,93,0.00,,,0.00,Wunderground v.1.15,2013-12-10 09:55:00,
2013-12-10 05:01:00,21.0,19.3,30.23,NNW,327,0.0,0.0,93,0.00,,,0.00,Wunderground v.1.15,2013-12-10 10:01:00,
2013-12-10 05:07:00,20.9,19.2,30.23,NNW,327,0.0,0.0,93,0.00,,,0.00,Wunderground v.1.15,2013-12-10 10:07:00,
2013-12-10 05:13:00,20.9,19.2,30.23,NNW,327,0.0,0.0,93,0.00,,,0.00,Wunderground v.1.15,2013-12-10 10:13:00,
2013-12-10 05:20:00,20.9,19.2,30.23,NNW,327,0.0,0.0,93,0.00,,,0.00,Wunderground v.1.15,2013-12-10 10:20:00,
2013-12-10 05:25:00,20.9,19.2,30.24,NNW,327,0.0,0.0,93,0.00,,,0.00,Wunderground v.1.15,2013-12-10 10:25:00,
2013-12-10 05:31:00,20.9,19.2,30.24,NNW,327,0.0,0.0,93,0.00,,,0.00,Wunderground v.1.15,2013-12-10 10:31:00,
2013-12-10 05:37:00,20.9,19.2,30.24,NNW,327,0.0,0.0,93,0.00,,,0.00,Wunderground v.1.15,2013-12-10 10:37:00,
2013-12-10 05:43:00,20.9,19.2,30.24,NW,325,0.0,0.0,93,0.00,,,0.00,Wunderground v.1.15,2013-12-10 10:43:00,
2013-12-10 05:49:00,20.9,19.2,30.24,NW,325,0.0,0.0,93,0.00,,,0.00,Wunderground v.1.15,2013-12-10 10:49:00,
2013-12-10 05:55:00,20.9,19.2,30.24,NW,325,0.0,0.0,93,0.00,,,0.00,Wunderground v.1.15,2013-12-10 10:55:00,
2013-12-10 06:01:00,20.9,19.2,30.24,NW,325,0.0,0.0,93,0.00,,,0.00,Wunderground v.1.15,2013-12-10 11:01:00,
2013-12-10 06:07:00,20.9,19.2,30.25,NW,325,0.0,0.0,93,0.00,,,0.00,Wunderground v.1.15,2013-12-10 11:07:00,
2013-12-10 06:13:00,20.8,19.1,30.25,NW,325,0.0,0.0,93,0.00,,,0.00,Wunderground v.1.15,2013-12-10 11:13:00,
2013-12-10 06:19:00,20.8,19.1,30.25,NW,325,0.0,0.0,93,0.00,,,0.00,Wunderground v.1.15,2013-12-10 11:19:00,
2013-12-10 06:25:00,20.8,19.1,30.25,NW,325,0.0,0.0,93,0.00,,,0.00,Wunderground v.1.15,2013-12-10 11:25:00,
2013-12-10 06:31:00,20.7,19.0,30.25,NW,325,0.0,0.0,93,0.00,,,0.00,Wunderground v.1.15,2013-12-10 11:31:00,
2013-12-10 06:37:00,20.7,19.0,30.26,NW,325,0.0,0.0,93,0.00,,,0.00,Wunderground v.1.15,2013-12-10 11:37:00,
2013-12-10 06:43:00,20.6,18.9,30.26,NW,325,0.0,0.0,93,0.00,,,0.00,Wunderground v.1.15,2013-12-10 11:43:00,
2013-12-10 06:50:00,20.5,18.8,30.27,NW,325,0.0,0.0,93,0.00,,,0.00,Wunderground v.1.15,2013-12-10 11:50:00,
2013-12-10 06:55:00,20.5,18.8,30.27,NW,325,0.0,0.0,93,0.00,,,0.00,Wunderground v.1.15,2013-12-10 11:55:00,
2013-12-10 07:01:00,20.5,18.8,30.27,NW,325,0.0,0.0,93,0.00,,,0.00,Wunderground v.1.15,2013-12-10 12:01:00,
2013-12-10 07:07:00,20.6,18.9,30.28,NW,323,0.0,2.0,93,0.00,,,0.00,Wunderground v.1.15,2013-12-10 12:07:00,
2013-12-10 07:13:00,20.6,18.9,30.28,NW,323,0.0,0.0,93,0.00,,,0.00,Wunderground v.1.15,2013-12-10 12:13:00,
2013-12-10 07:20:00,20.7,19.0,30.28,NW,323,0.0,0.0,93,0.00,,,0.00,Wunderground v.1.15,2013-12-10 12:20:00,
2013-12-10 07:25:00,20.5,18.8,30.28,NW,323,0.0,0.0,93,0.00,,,0.00,Wunderground v.1.15,2013-12-10 12:25:00,
2013-12-10 07:31:00,20.3,18.6,30.28,NW,323,0.0,0.0,93,0.00,,,0.00,Wunderground v.1.15,2013-12-10 12:31:00,
2013-12-10 07:37:00,20.0,18.1,30.29,NW,323,0.0,0.0,92,0.00,,,0.00,Wunderground v.1.15,2013-12-10 12:37:00,
2013-12-10 07:43:00,19.7,17.8,30.30,NW,323,0.0,0.0,92,0.00,,,0.00,Wunderground v.1.15,2013-12-10 12:43:00,
2013-12-10 07:50:00,19.6,17.9,30.30,NW,323,0.0,0.0,93,0.00,,,0.00,Wunderground v.1.15,2013-12-10 12:50:00,
2013-12-10 07:55:00,19.6,17.9,30.30,NW,323,0.0,0.0,93,0.00,,,0.00,Wunderground v.1.15,2013-12-10 12:55:00,
2013-12-10 08:01:00,19.4,17.7,30.30,NW,323,0.0,0.0,93,0.00,,,0.00,Wunderground v.1.15,2013-12-10 13:01:00,
2013-12-10 08:07:00,19.2,17.5,30.30,NW,323,0.0,0.0,93,0.00,,,0.00,Wunderground v.1.15,2013-12-10 13:07:00,
2013-12-10 08:13:00,18.8,16.9,30.30,NW,323,0.0,0.0,92,0.00,,,0.00,Wunderground v.1.15,2013-12-10 13:13:00,
2013-12-10 08:20:00,18.4,16.5,30.30,NW,323,0.0,0.0,92,0.00,,,0.00,Wunderground v.1.15,2013-12-10 13:20:00,
2013-12-10 08:25:00,18.2,16.3,30.30,NW,323,0.0,0.0,92,0.00,,,0.00,Wunderground v.1.15,2013-12-10 13:25:00,
2013-12-10 08:31:00,18.0,16.1,30.30,NW,323,0.0,0.0,92,0.00,,,0.00,Wunderground v.1.15,2013-12-10 13:31:00,
2013-12-10 08:37:00,17.7,15.8,30.30,NW,323,0.0,0.0,92,0.00,,,0.00,Wunderground v.1.15,2013-12-10 13:37:00,
2013-12-10 08:43:00,18.0,16.3,30.30,NW,323,0.0,0.0,93,0.00,,,0.00,Wunderground v.1.15,2013-12-10 13:43:00,
2013-12-10 08:50:00,18.3,16.6,30.30,NW,320,1.0,2.0,93,0.00,,,0.00,Wunderground v.1.15,2013-12-10 13:50:00,
2013-12-10 08:55:00,18.5,16.8,30.30,NW,320,1.0,1.0,93,0.00,,,0.00,Wunderground v.1.15,2013-12-10 13:55:00,
2013-12-10 09:01:00,18.7,17.0,30.31,NW,319,0.0,0.0,93,0.00,,,0.00,Wunderground v.1.15,2013-12-10 14:01:00,
2013-12-10 09:07:00,18.9,17.2,30.31,NW,318,0.0,0.0,93,0.00,,,0.00,Wunderground v.1.15,2013-12-10 14:07:00,
2013-12-10 09:13:00,19.0,17.3,30.32,NW,318,0.0,0.0,93,0.00,,,0.00,Wunderground v.1.15,2013-12-10 14:13:00,
2013-12-10 09:20:00,19.2,17.5,30.31,NW,311,0.0,4.0,93,0.00,,,0.00,Wunderground v.1.15,2013-12-10 14:20:00,
2013-12-10 09:25:00,19.4,17.7,30.32,WSW,246,1.0,5.0,93,0.00,,,0.00,Wunderground v.1.15,2013-12-10 14:25:00,
2013-12-10 09:31:00,19.7,18.0,30.33,WSW,248,1.0,1.0,93,0.00,,,0.00,Wunderground v.1.15,2013-12-10 14:31:00,
2013-12-10 09:37:00,19.9,18.2,30.32,WSW,249,1.0,3.0,93,0.00,,,0.00,Wunderground v.1.15,2013-12-10 14:37:00,
2013-12-10 09:43:00,20.0,18.1,30.32,WSW,246,2.0,2.0,92,0.00,,,0.00,Wunderground v.1.15,2013-12-10 14:43:00,
2013-12-10 09:50:00,20.3,18.3,30.32,WSW,246,1.0,4.0,92,0.00,,,0.00,Wunderground v.1.15,2013-12-10 14:50:00,
2013-12-10 09:55:00,20.4,18.4,30.32,SW,227,3.0,6.0,92,0.00,,,0.00,Wunderground v.1.15,2013-12-10 14:55:00,
2013-12-10 10:01:00,20.6,18.4,30.32,SW,218,4.0,5.0,91,0.00,,,0.00,Wunderground v.1.15,2013-12-10 15:01:00,
2013-12-10 10:07:00,20.7,18.5,30.32,SW,217,3.0,7.0,91,0.00,,,0.00,Wunderground v.1.15,2013-12-10 15:07:00,
2013-12-10 10:13:00,20.9,18.4,30.31,SW,235,3.0,4.0,90,0.00,,,0.00,Wunderground v.1.15,2013-12-10 15:13:00,
2013-12-10 10:20:00,21.1,18.1,30.31,SW,230,5.0,8.0,88,0.00,,,0.00,Wunderground v.1.15,2013-12-10 15:20:00,
2013-12-10 10:25:00,21.3,18.0,30.31,SW,229,5.0,5.0,87,0.00,,,0.00,Wunderground v.1.15,2013-12-10 15:25:00,
2013-12-10 10:31:00,21.6,18.1,30.31,WSW,243,5.0,5.0,86,0.00,,,0.00,Wunderground v.1.15,2013-12-10 15:31:00,
2013-12-10 10:37:00,21.9,18.1,30.32,SW,223,4.0,6.0,85,0.00,,,0.00,Wunderground v.1.15,2013-12-10 15:37:00,
2013-12-10 10:43:00,22.0,18.2,30.32,SW,215,5.0,5.0,85,0.00,,,0.00,Wunderground v.1.15,2013-12-10 15:43:00,
2013-12-10 10:50:00,22.1,18.0,30.32,SW,227,5.0,7.0,84,0.00,,,0.00,Wunderground v.1.15,2013-12-10 15:50:00,
2013-12-10 10:55:00,22.3,18.2,30.32,SW,231,5.0,6.0,84,0.00,,,0.00,Wunderground v.1.15,2013-12-10 15:55:00,
2013-12-10 11:01:00,22.6,18.2,30.32,West,259,4.0,6.0,83,0.00,,,0.00,Wunderground v.1.15,2013-12-10 16:01:00,
2013-12-10 11:07:00,22.8,18.4,30.32,WSW,239,5.0,6.0,83,0.00,,,0.00,Wunderground v.1.15,2013-12-10 16:07:00,
2013-12-10 11:13:00,22.9,18.2,30.31,SW,232,6.0,10.0,82,0.00,,,0.00,Wunderground v.1.15,2013-12-10 16:13:00,
2013-12-10 11:20:00,23.2,18.2,30.32,SW,235,6.0,10.0,81,0.00,,,0.00,Wunderground v.1.15,2013-12-10 16:20:00,
2013-12-10 11:25:00,23.6,18.3,30.32,SW,236,5.0,6.0,80,0.00,,,0.00,Wunderground v.1.15,2013-12-10 16:25:00,
2013-12-10 11:31:00,23.9,18.3,30.32,WSW,257,4.0,5.0,79,0.00,,,0.00,Wunderground v.1.15,2013-12-10 16:31:00,
2013-12-10 11:37:00,24.2,18.3,30.32,West,278,4.0,6.0,78,0.00,,,0.00,Wunderground v.1.15,2013-12-10 16:37:00,
2013-12-10 11:43:00,24.4,17.9,30.32,WSW,248,5.0,7.0,76,0.00,,,0.00,Wunderground v.1.15,2013-12-10 16:43:00,
2013-12-10 11:50:00,24.6,17.5,30.32,West,259,5.0,7.0,74,0.00,,,0.00,Wunderground v.1.15,2013-12-10 16:50:00,
2013-12-10 11:55:00,24.8,17.4,30.31,SW,228,5.0,7.0,73,0.00,,,0.00,Wunderground v.1.15,2013-12-10 16:55:00,
2013-12-10 12:01:00,25.1,17.0,30.31,West,274,5.0,5.0,71,0.00,,,0.00,Wunderground v.1.15,2013-12-10 17:01:00,
2013-12-10 12:07:00,25.3,17.2,30.30,West,265,5.0,7.0,71,0.00,,,0.00,Wunderground v.1.15,2013-12-10 17:07:00,
2013-12-10 12:13:00,25.6,16.8,30.30,WSW,241,5.0,5.0,69,0.00,,,0.00,Wunderground v.1.15,2013-12-10 17:13:00,
2013-12-10 12:20:00,25.9,16.8,30.30,WSW,239,5.0,6.0,68,0.00,,,0.00,Wunderground v.1.15,2013-12-10 17:20:00,
2013-12-10 12:25:00,26.0,15.8,30.30,SW,222,6.0,7.0,65,0.00,,,0.00,Wunderground v.1.15,2013-12-10 17:25:00,
2013-12-10 12:31:00,26.1,14.1,30.29,SW,235,6.0,6.0,60,0.00,,,0.00,Wunderground v.1.15,2013-12-10 17:31:00,
2013-12-10 12:37:00,26.2,14.6,30.28,SW,229,7.0,9.0,61,0.00,,,0.00,Wunderground v.1.15,2013-12-10 17:37:00,
2013-12-10 12:43:00,26.4,15.1,30.29,SW,224,6.0,7.0,62,0.00,,,0.00,Wunderground v.1.15,2013-12-10 17:43:00,
2013-12-10 12:50:00,26.7,15.8,30.29,SW,225,6.0,11.0,63,0.00,,,0.00,Wunderground v.1.15,2013-12-10 17:50:00,
2013-12-10 12:55:00,26.7,16.1,30.28,SW,234,7.0,10.0,64,0.00,,,0.00,Wunderground v.1.15,2013-12-10 17:55:00,
2013-12-10 13:01:00,26.9,16.7,30.28,SW,219,6.0,6.0,65,0.00,,,0.00,Wunderground v.1.15,2013-12-10 18:01:00,
2013-12-10 13:07:00,27.1,17.2,30.28,SSW,209,6.0,7.0,66,0.00,,,0.00,Wunderground v.1.15,2013-12-10 18:07:00,
2013-12-10 13:13:00,27.5,17.6,30.28,WSW,242,6.0,6.0,66,0.00,,,0.00,Wunderground v.1.15,2013-12-10 18:13:00,
2013-12-10 13:20:00,27.7,16.7,30.28,WSW,251,6.0,8.0,63,0.00,,,0.00,Wunderground v.1.15,2013-12-10 18:20:00,
2013-12-10 13:25:00,27.8,16.8,30.27,SSW,200,7.0,7.0,63,0.00,,,0.00,Wunderground v.1.15,2013-12-10 18:25:00,
2013-12-10 13:31:00,27.9,16.9,30.27,SW,227,6.0,6.0,63,0.00,,,0.00,Wunderground v.1.15,2013-12-10 18:31:00,
2013-12-10 13:37:00,28.0,16.6,30.27,SW,232,6.0,7.0,62,0.00,,,0.00,Wunderground v.1.15,2013-12-10 18:37:00,
2013-12-10 13:43:00,28.2,16.1,30.27,SW,214,6.0,9.0,60,0.00,,,0.00,Wunderground v.1.15,2013-12-10 18:43:00,
2013-12-10 13:50:00,28.4,16.7,30.27,SW,228,7.0,10.0,61,0.00,,,0.00,Wunderground v.1.15,2013-12-10 18:50:00,
2013-12-10 13:55:00,28.4,15.9,30.27,WSW,238,7.0,10.0,59,0.00,,,0.00,Wunderground v.1.15,2013-12-10 18:55:00,
2013-12-10 14:01:00,28.7,16.6,30.27,WSW,240,7.0,7.0,60,0.00,,,0.00,Wunderground v.1.15,2013-12-10 19:01:00,
2013-12-10 14:07:00,28.9,16.7,30.27,SW,236,6.0,7.0,60,0.00,,,0.00,Wunderground v.1.15,2013-12-10 19:07:00,
2013-12-10 14:13:00,29.1,16.9,30.26,SSW,196,6.0,6.0,60,0.00,,,0.00,Wunderground v.1.15,2013-12-10 19:13:00,
2013-12-10 14:20:00,29.1,16.1,30.27,SSW,205,7.0,10.0,58,0.00,,,0.00,Wunderground v.1.15,2013-12-10 19:20:00,
2013-12-10 14:25:00,29.3,16.3,30.26,SW,229,7.0,12.0,58,0.00,,,0.00,Wunderground v.1.15,2013-12-10 19:25:00,
2013-12-10 14:31:00,29.6,16.6,30.27,SW,231,7.0,8.0,58,0.00,,,0.00,Wunderground v.1.15,2013-12-10 19:31:00,
2013-12-10 14:37:00,29.9,16.5,30.27,WSW,257,6.0,8.0,57,0.00,,,0.00,Wunderground v.1.15,2013-12-10 19:37:00,
2013-12-10 14:43:00,30.2,16.0,30.26,West,261,5.0,6.0,55,0.00,,,0.00,Wunderground v.1.15,2013-12-10 19:43:00,
2013-12-10 14:49:00,30.3,15.2,30.26,WNW,290,6.0,6.0,53,0.00,,,0.00,Wunderground v.1.15,2013-12-10 19:49:00,
2013-12-10 14:55:00,30.4,16.1,30.26,West,263,6.0,6.0,55,0.00,,,0.00,Wunderground v.1.15,2013-12-10 19:55:00,
2013-12-10 15:01:00,30.5,15.8,30.26,WSW,253,5.0,5.0,54,0.00,,,0.00,Wunderground v.1.15,2013-12-10 20:01:00,
2013-12-10 15:07:00,30.5,15.8,30.26,SW,220,5.0,5.0,54,0.00,,,0.00,Wunderground v.1.15,2013-12-10 20:07:00,
2013-12-10 15:13:00,30.7,16.4,30.27,WSW,248,5.0,5.0,55,0.00,,,0.00,Wunderground v.1.15,2013-12-10 20:13:00,
2013-12-10 15:19:00,30.8,16.1,30.26,WSW,248,6.0,7.0,54,0.00,,,0.00,Wunderground v.1.15,2013-12-10 20:19:00,
2013-12-10 15:25:00,30.7,16.0,30.26,SW,223,6.0,9.0,54,0.00,,,0.00,Wunderground v.1.15,2013-12-10 20:25:00,
2013-12-10 15:31:00,30.6,15.9,30.27,West,260,7.0,7.0,54,0.00,,,0.00,Wunderground v.1.15,2013-12-10 20:31:00,
2013-12-10 15:37:00,30.7,16.4,30.27,WSW,237,6.0,7.0,55,0.00,,,0.00,Wunderground v.1.15,2013-12-10 20:37:00,
2013-12-10 15:43:00,30.8,16.9,30.27,WSW,240,5.0,5.0,56,0.00,,,0.00,Wunderground v.1.15,2013-12-10 20:43:00,
2013-12-10 15:49:00,30.8,16.9,30.27,West,276,4.0,5.0,56,0.00,,,0.00,Wunderground v.1.15,2013-12-10 20:49:00,
2013-12-10 15:55:00,30.9,17.4,30.28,WSW,254,4.0,5.0,57,0.00,,,0.00,Wunderground v.1.15,2013-12-10 20:55:00,
2013-12-10 16:01:00,30.7,17.3,30.28,WSW,253,4.0,5.0,57,0.00,,,0.00,Wunderground v.1.15,2013-12-10 21:01:00,
2013-12-10 16:07:00,30.6,17.6,30.28,WSW,239,5.0,5.0,58,0.00,,,0.00,Wunderground v.1.15,2013-12-10 21:07:00,
2013-12-10 16:13:00,30.6,17.6,30.28,WSW,257,4.0,5.0,58,0.00,,,0.00,Wunderground v.1.15,2013-12-10 21:13:00,
2013-12-10 16:20:00,30.4,17.4,30.28,WSW,248,4.0,6.0,58,0.00,,,0.00,Wunderground v.1.15,2013-12-10 21:20:00,
2013-12-10 16:25:00,30.4,17.4,30.28,WSW,248,3.0,4.0,58,0.00,,,0.00,Wunderground v.1.15,2013-12-10 21:25:00,
2013-12-10 16:31:00,30.3,17.3,30.29,WSW,242,4.0,4.0,58,0.00,,,0.00,Wunderground v.1.15,2013-12-10 21:31:00,
2013-12-10 16:37:00,30.1,16.7,30.29,WSW,249,4.0,4.0,57,0.00,,,0.00,Wunderground v.1.15,2013-12-10 21:37:00,
2013-12-10 16:43:00,30.0,16.6,30.29,WSW,248,4.0,6.0,57,0.00,,,0.00,Wunderground v.1.15,2013-12-10 21:43:00,
2013-12-10 16:50:00,29.8,16.8,30.29,WSW,238,3.0,6.0,58,0.00,,,0.00,Wunderground v.1.15,2013-12-10 21:50:00,
2013-12-10 16:55:00,29.6,17.0,30.30,West,259,4.0,6.0,59,0.00,,,0.00,Wunderground v.1.15,2013-12-10 21:55:00,
2013-12-10 17:01:00,29.3,17.1,30.31,West,267,4.0,4.0,60,0.00,,,0.00,Wunderground v.1.15,2013-12-10 22:01:00,
2013-12-10 17:07:00,28.9,16.7,30.31,West,260,3.0,5.0,60,0.00,,,0.00,Wunderground v.1.15,2013-12-10 22:07:00,
2013-12-10 17:13:00,28.6,16.8,30.31,WNW,286,3.0,3.0,61,0.00,,,0.00,Wunderground v.1.15,2013-12-10 22:13:00,
2013-12-10 17:20:00,28.3,16.6,30.31,NW,307,1.0,5.0,61,0.00,,,0.00,Wunderground v.1.15,2013-12-10 22:20:00,
2013-12-10 17:25:00,28.1,16.7,30.31,NW,307,0.0,1.0,62,0.00,,,0.00,Wunderground v.1.15,2013-12-10 22:25:00,
2013-12-10 17:31:00,27.7,16.4,30.31,NW,307,0.0,0.0,62,0.00,,,0.00,Wunderground v.1.15,2013-12-10 22:31:00,
2013-12-10 17:37:00,27.4,16.4,30.31,NW,304,0.0,2.0,63,0.00,,,0.00,Wunderground v.1.15,2013-12-10 22:37:00,
2013-12-10 17:43:00,27.3,16.4,30.31,WNW,300,1.0,1.0,63,0.00,,,0.00,Wunderground v.1.15,2013-12-10 22:43:00,
2013-12-10 17:50:00,27.0,16.4,30.32,WNW,297,1.0,1.0,64,0.00,,,0.00,Wunderground v.1.15,2013-12-10 22:50:00,
2013-12-10 17:55:00,26.6,16.4,30.32,WNW,297,0.0,0.0,65,0.00,,,0.00,Wunderground v.1.15,2013-12-10 22:55:00,
2013-12-10 18:01:00,26.2,16.0,30.32,WNW,297,0.0,0.0,65,0.00,,,0.00,Wunderground v.1.15,2013-12-10 23:01:00,
2013-12-10 18:07:00,25.8,16.0,30.32,WNW,297,0.0,0.0,66,0.00,,,0.00,Wunderground v.1.15,2013-12-10 23:07:00,
2013-12-10 18:13:00,25.5,16.1,30.32,WNW,297,0.0,0.0,67,0.00,,,0.00,Wunderground v.1.15,2013-12-10 23:13:00,
2013-12-10 18:20:00,25.1,16.0,30.31,WNW,297,0.0,0.0,68,0.00,,,0.00,Wunderground v.1.15,2013-12-10 23:20:00,
2013-12-10 18:25:00,24.7,15.6,30.31,WNW,297,0.0,0.0,68,0.00,,,0.00,Wunderground v.1.15,2013-12-10 23:25:00,
2013-12-10 18:31:00,24.2,15.5,30.31,WNW,297,0.0,0.0,69,0.00,,,0.00,Wunderground v.1.15,2013-12-10 23:31:00,
2013-12-10 18:37:00,23.9,15.5,30.30,WNW,297,0.0,0.0,70,0.00,,,0.00,Wunderground v.1.15,2013-12-10 23:37:00,
2013-12-10 18:43:00,23.6,15.6,30.31,WNW,297,0.0,0.0,71,0.00,,,0.00,Wunderground v.1.15,2013-12-10 23:43:00,
2013-12-10 18:49:00,23.3,15.6,30.31,WNW,297,0.0,0.0,72,0.00,,,0.00,Wunderground v.1.15,2013-12-10 23:49:00,
2013-12-10 18:55:00,22.9,15.2,30.31,WNW,297,0.0,0.0,72,0.00,,,0.00,Wunderground v.1.15,2013-12-10 23:55:00,
2013-12-10 19:01:00,22.5,15.1,30.30,WNW,297,0.0,0.0,73,0.00,,,0.00,Wunderground v.1.15,2013-12-11 00:01:00,
2013-12-10 19:07:00,22.1,14.8,30.30,WNW,297,0.0,0.0,73,0.00,,,0.00,Wunderground v.1.15,2013-12-11 00:07:00,
2013-12-10 19:13:00,21.8,15.1,30.30,WNW,297,0.0,0.0,75,0.00,,,0.00,Wunderground v.1.15,2013-12-11 00:13:00,
2013-12-10 19:19:00,21.6,14.9,30.30,WNW,297,0.0,0.0,75,0.00,,,0.00,Wunderground v.1.15,2013-12-11 00:19:00,
2013-12-10 19:25:00,21.5,15.1,30.31,WNW,297,0.0,0.0,76,0.00,,,0.00,Wunderground v.1.15,2013-12-11 00:25:00,
2013-12-10 19:31:00,21.3,14.9,30.32,WNW,297,0.0,0.0,76,0.00,,,0.00,Wunderground v.1.15,2013-12-11 00:31:00,
2013-12-10 19:37:00,21.5,15.4,30.31,WNW,297,0.0,0.0,77,0.00,,,0.00,Wunderground v.1.15,2013-12-11 00:37:00,
2013-12-10 19:43:00,21.2,14.8,30.31,WNW,297,0.0,0.0,76,0.00,,,0.00,Wunderground v.1.15,2013-12-11 00:43:00,
2013-12-10 19:50:00,20.9,14.8,30.31,WNW,297,0.0,0.0,77,0.00,,,0.00,Wunderground v.1.15,2013-12-11 00:50:00,
2013-12-10 19:55:00,20.7,14.6,30.31,WNW,297,0.0,0.0,77,0.00,,,0.00,Wunderground v.1.15,2013-12-11 00:55:00,
2013-12-10 20:01:00,20.6,14.8,30.32,WNW,297,0.0,0.0,78,0.00,,,0.00,Wunderground v.1.15,2013-12-11 01:01:00,
2013-12-10 20:07:00,20.4,14.6,30.33,WNW,297,0.0,0.0,78,0.00,,,0.00,Wunderground v.1.15,2013-12-11 01:07:00,
2013-12-10 20:13:00,20.1,14.0,30.32,WNW,297,0.0,0.0,77,0.00,,,0.00,Wunderground v.1.15,2013-12-11 01:13:00,
2013-12-10 20:20:00,19.8,14.3,30.32,WNW,297,0.0,0.0,79,0.00,,,0.00,Wunderground v.1.15,2013-12-11 01:20:00,
2013-12-10 20:25:00,19.7,14.2,30.32,WNW,297,0.0,0.0,79,0.00,,,0.00,Wunderground v.1.15,2013-12-11 01:25:00,
2013-12-10 20:31:00,19.5,14.3,30.33,WNW,297,0.0,0.0,80,0.00,,,0.00,Wunderground v.1.15,2013-12-11 01:31:00,
2013-12-10 20:37:00,19.5,14.3,30.33,WNW,297,0.0,0.0,80,0.00,,,0.00,Wunderground v.1.15,2013-12-11 01:37:00,
2013-12-10 20:43:00,19.3,14.1,30.33,WNW,297,0.0,0.0,80,0.00,,,0.00,Wunderground v.1.15,2013-12-11 01:43:00,
2013-12-10 20:49:00,19.3,14.4,30.33,WNW,297,0.0,0.0,81,0.00,,,0.00,Wunderground v.1.15,2013-12-11 01:49:00,
2013-12-10 20:55:00,19.3,14.4,30.33,WNW,297,0.0,0.0,81,0.00,,,0.00,Wunderground v.1.15,2013-12-11 01:55:00,
2013-12-10 21:01:00,19.0,14.1,30.33,WNW,297,0.0,0.0,81,0.00,,,0.00,Wunderground v.1.15,2013-12-11 02:01:00,
2013-12-10 21:07:00,18.7,13.8,30.33,WNW,297,0.0,0.0,81,0.00,,,0.00,Wunderground v.1.15,2013-12-11 02:07:00,
2013-12-10 21:13:00,18.5,13.9,30.33,WNW,297,0.0,0.0,82,0.00,,,0.00,Wunderground v.1.15,2013-12-11 02:13:00,
2013-12-10 21:19:00,18.5,14.2,30.33,WNW,297,0.0,0.0,83,0.00,,,0.00,Wunderground v.1.15,2013-12-11 02:19:00,
2013-12-10 21:25:00,18.4,14.1,30.32,WNW,297,0.0,0.0,83,0.00,,,0.00,Wunderground v.1.15,2013-12-11 02:25:00,
2013-12-10 21:31:00,18.3,14.0,30.33,WNW,297,0.0,0.0,83,0.00,,,0.00,Wunderground v.1.15,2013-12-11 02:31:00,
2013-12-10 21:37:00,18.4,14.6,30.34,WNW,297,0.0,0.0,85,0.00,,,0.00,Wunderground v.1.15,2013-12-11 02:37:00,
2013-12-10 21:43:00,18.4,14.4,30.34,WNW,297,0.0,0.0,84,0.00,,,0.00,Wunderground v.1.15,2013-12-11 02:43:00,
2013-12-10 21:50:00,18.2,14.2,30.35,WNW,297,0.0,0.0,84,0.00,,,0.00,Wunderground v.1.15,2013-12-11 02:50:00,
2013-12-10 21:55:00,18.3,14.5,30.35,WNW,297,0.0,0.0,85,0.00,,,0.00,Wunderground v.1.15,2013-12-11 02:55:00,
2013-12-10 22:01:00,18.2,14.4,30.36,WNW,297,0.0,0.0,85,0.00,,,0.00,Wunderground v.1.15,2013-12-11 03:01:00,
2013-12-10 22:07:00,18.1,14.4,30.36,WNW,297,0.0,0.0,85,0.00,,,0.00,Wunderground v.1.15,2013-12-11 03:07:00,
2013-12-10 22:13:00,18.2,14.7,30.36,WNW,297,0.0,0.0,86,0.00,,,0.00,Wunderground v.1.15,2013-12-11 03:13:00,
2013-12-10 22:20:00,18.4,15.2,30.37,WNW,297,0.0,0.0,87,0.00,,,0.00,Wunderground v.1.15,2013-12-11 03:20:00,
2013-12-10 22:25:00,18.3,14.8,30.37,WNW,297,0.0,0.0,86,0.00,,,0.00,Wunderground v.1.15,2013-12-11 03:25:00,
2013-12-10 22:31:00,18.1,14.4,30.38,WNW,297,0.0,0.0,85,0.00,,,0.00,Wunderground v.1.15,2013-12-11 03:31:00,
2013-12-10 22:37:00,18.0,14.5,30.38,WNW,297,0.0,0.0,86,0.00,,,0.00,Wunderground v.1.15,2013-12-11 03:37:00,
2013-12-10 22:43:00,17.7,14.2,30.39,WNW,297,0.0,0.0,86,0.00,,,0.00,Wunderground v.1.15,2013-12-11 03:43:00,
2013-12-10 22:49:00,17.4,13.9,30.38,WNW,297,0.0,0.0,86,0.00,,,0.00,Wunderground v.1.15,2013-12-11 03:49:00,
2013-12-10 22:55:00,17.2,13.7,30.39,WNW,297,0.0,0.0,86,0.00,,,0.00,Wunderground v.1.15,2013-12-11 03:55:00,
2013-12-10 23:01:00,17.0,13.8,30.39,WNW,297,0.0,0.0,87,0.00,,,0.00,Wunderground v.1.15,2013-12-11 04:01:00,
2013-12-10 23:07:00,16.8,13.6,30.39,WNW,297,0.0,0.0,87,0.00,,,0.00,Wunderground v.1.15,2013-12-11 04:07:00,
2013-12-10 23:13:00,16.6,13.4,30.39,WNW,297,0.0,0.0,87,0.00,,,0.00,Wunderground v.1.15,2013-12-11 04:13:00,
2013-12-10 23:19:00,16.4,13.5,30.38,WNW,297,0.0,0.0,88,0.00,,,0.00,Wunderground v.1.15,2013-12-11 04:19:00,
2013-12-10 23:25:00,16.2,13.0,30.38,WNW,297,0.0,0.0,87,0.00,,,0.00,Wunderground v.1.15,2013-12-11 04:25:00,
2013-12-10 23:31:00,15.9,12.7,30.39,WNW,297,0.0,0.0,87,0.00,,,0.00,Wunderground v.1.15,2013-12-11 04:31:00,
2013-12-10 23:37:00,15.6,12.7,30.39,WNW,297,0.0,0.0,88,0.00,,,0.00,Wunderground v.1.15,2013-12-11 04:37:00,
2013-12-10 23:43:00,15.5,12.6,30.38,WNW,297,0.0,0.0,88,0.00,,,0.00,Wunderground v.1.15,2013-12-11 04:43:00,
2013-12-10 23:49:00,15.6,12.9,30.38,WNW,297,0.0,0.0,89,0.00,,,0.00,Wunderground v.1.15,2013-12-11 04:49:00,
2013-12-10 23:55:00,15.3,12.6,30.38,WNW,297,0.0,0.0,89,0.00,,,0.00,Wunderground v.1.15,2013-12-11 04:55:00,